Terug naar catalogus

FENGYUN 1C DEB

ActiefSSO
NORAD 30466·DEBRIS·🇨🇳 China

Gelanceerd May 10, 1999 vanaf Taiyuan Satellite Launch Center

Loading…

Volgende Passages (komende 24 uur)

TLE

VersSource: Space-Track

Epoch: Sep 14, 2026, 13:55 UTC

1 30466U 99025AGD 26257.58046904  .00001224  00000-0  51984-3 0  9991
2 30466  98.6330 297.6470 0114659 303.9563 219.9991 14.23635797 12741

Volg FENGYUN 1C DEB in realtime met AllMySat

Download on the App Store